Weather History for KRDM - March, 2012

Change the Weather History Date:

Thursday, March 29, 2012

  Actual Average Record
Temperature  
Mean Temperature 51 °F 42 °F  
Max Temperature 59 °F 57 °F 80 °F (1966)
Min Temperature 42 °F 27 °F 14 °F (1950)
Degree Days  
Heating Degree Days 14 23  
Month to date heating degree days 750 731  
Since 1 July heating degree days 5275 5404  
Cooling Degree Days 0 0  
Month to date cooling degree days 0 0  
Year to date cooling degree days 0 0  
Moisture  
Dew Point 33 °F    
Average Humidity 61    
Maximum Humidity 83    
Minimum Humidity 39    
Precipitation  
Precipitation 0.03 in 0.02 in 0.39 in (1974)
Month to date precipitation 0.92 0.61  
Year to date precipitation 3.13 2.23  
Sea Level Pressure  
Sea Level Pressure 29.70 in    
Wind  
Wind Speed 18 mph (SSW)    
Max Wind Speed 36 mph    
Max Gust Speed 48 mph    
Visibility 10 miles    
Events Rain    
T = Trace of Precipitation, MM = Missing Value Source: NWS Daily Summary

Daily Weather History Graph

Daily Weather History Graph

Search for Another Location

Airport or City:

Trip Planner

Search our weather history database for the weather conditions in past years. The results will help you decide how hot, cold, wet, or windy it might be!

Date:

Astronomy

Mar. 29, 2012 Rise Set
Actual Time 6:50 AM PDT 7:28 PM PDT
Civil Twilight 6:21 AM PDT 7:58 PM PDT
Nautical Twilight 5:46 AM PDT 8:32 PM PDT
Astronomical Twilight 5:10 AM PDT 9:08 PM PDT
Moon 10:52 AM PDT (3/29) 1:35 AM PDT (3/29)
Length of Visible Light 13h 37m
Length of Day
12h 38m
Waxing Crescent, 40% of the Moon is Illuminated
Mar 29
Waxing Crescent
Mar 30
First Quarter
Apr 6
Full
Apr 13
Last Quarter
Apr 21
New

Hourly Weather History & Observations

Time (PDT) Temp. Windchill Dew Point Humidity Pressure Visibility Wind Dir Wind Speed Gust Speed Precip Events Conditions
12:56 AM 43.0 °F 38.8 °F 26.1 °F 51% 29.83 in 10.0 mi South 6.9 mph - N/A   Overcast
1:56 AM 43.0 °F 36.0 °F 28.9 °F 58% 29.80 in 10.0 mi South 13.8 mph 20.7 mph N/A   Overcast
2:56 AM 43.0 °F 36.8 °F 28.9 °F 58% 29.79 in 10.0 mi South 11.5 mph - N/A   Overcast
3:56 AM 44.1 °F 37.4 °F 28.0 °F 53% 29.77 in 10.0 mi South 13.8 mph 23.0 mph N/A   Overcast
4:56 AM 44.1 °F 36.5 °F 28.9 °F 55% 29.76 in 10.0 mi South 17.3 mph 23.0 mph N/A   Mostly Cloudy
5:56 AM 44.1 °F 38.1 °F 28.9 °F 55% 29.76 in 10.0 mi South 11.5 mph - N/A   Scattered Clouds
6:56 AM 44.1 °F 37.1 °F 30.0 °F 58% 29.75 in 10.0 mi South 15.0 mph 24.2 mph N/A   Clear
7:56 AM 45.0 °F 37.1 °F 30.0 °F 56% 29.76 in 10.0 mi South 19.6 mph 27.6 mph N/A   Scattered Clouds
8:56 AM 46.0 °F 39.6 °F 30.0 °F 54% 29.77 in 10.0 mi South 15.0 mph 31.1 mph N/A   Mostly Cloudy
9:56 AM 46.0 °F 38.5 °F 30.9 °F 56% 29.76 in 10.0 mi South 19.6 mph 25.3 mph N/A   Overcast
10:56 AM 46.9 °F - 32.0 °F 56% 29.74 in 10.0 mi South 16.1 mph 24.2 mph N/A   Overcast
11:56 AM 51.1 °F - 30.9 °F 46% 29.71 in 10.0 mi SSW 11.5 mph 21.9 mph N/A   Overcast
12:56 PM 57.9 °F - 32.0 °F 37% 29.64 in 10.0 mi SSW 24.2 mph 32.2 mph N/A   Mostly Cloudy
1:56 PM 57.0 °F - 33.1 °F 40% 29.62 in 10.0 mi SSW 18.4 mph 38.0 mph N/A   Overcast
2:56 PM 57.0 °F - 35.1 °F 44% 29.60 in 10.0 mi South 21.9 mph 40.3 mph N/A   Mostly Cloudy
3:56 PM 54.0 °F - 35.1 °F 49% 29.59 in 10.0 mi SSW 25.3 mph 42.6 mph N/A   Mostly Cloudy
4:56 PM 51.1 °F - 36.0 °F 56% 29.58 in 10.0 mi SSW 23.0 mph 40.3 mph N/A   Partly Cloudy
5:56 PM 50.0 °F - 36.0 °F 59% 29.62 in 10.0 mi SW 31.1 mph 43.7 mph N/A   Scattered Clouds
6:56 PM 46.9 °F - 37.9 °F 71% 29.64 in 10.0 mi SSW 17.3 mph 40.3 mph 0.00 in Rain Light Rain
7:56 PM 46.0 °F 39.3 °F 37.0 °F 71% 29.64 in 10.0 mi SSW 16.1 mph 23.0 mph 0.00 in   Mostly Cloudy
8:56 PM 45.0 °F 38.5 °F 37.9 °F 76% 29.65 in 10.0 mi South 13.8 mph 24.2 mph 0.01 in Rain Light Rain
9:56 PM 46.0 °F 38.5 °F 37.0 °F 71% 29.65 in 10.0 mi South 19.6 mph 26.5 mph 0.00 in Rain Light Rain
10:56 PM 45.0 °F 37.9 °F 39.0 °F 80% 29.65 in 10.0 mi South 16.1 mph 27.6 mph 0.02 in Rain Light Rain
11:56 PM 45.0 °F 37.1 °F 37.0 °F 74% 29.62 in 10.0 mi South 19.6 mph 28.8 mph 0.00 in   Overcast